Vorticity
nan nan nan nan nan nan nan nan nan nan nan nan nan nan nan nan nan nan nan nan nan nan nan nan nan nan nan nan nan nan nan nan nan nan nan nan nan nan nan nan nan nan nan nan nan
nan 7 6 6 6 6 6 7 7 7 7 7 8 8 7 11 19 13 9 8 10 8 9 4 8 4 3 7 9 6 8 5 6 6 8 8 7 9 6 3 5 7 17 14 nan
nan 6 7 7 6 7 6 7 7 7 7 7 8 8 7 14 15 12 12 10 7 3 6 8 10 6 4 6 7 4 10 8 5 7 11 11 11 3 9 9 8 15 12 7 nan
nan 6 7 7 7 7 6 6 7 7 7 7 8 8 15 15 9 8 13 12 5 9 9 7 6 6 6 6 7 5 6 4 5 8 15 12 7 7 6 12 20 20 11 7 nan
nan 7 7 7 7 7 7 7 7 7 8 7 8 11 17 9 8 8 8 10 9 7 5 6 10 10 8 8 6 10 4 6 7 11 14 10 4 5 10 12 16 13 10 7 nan
nan 7 7 7 7 7 7 7 7 7 8 7 8 15 14 7 7 8 9 6 7 8 6 8 9 9 10 8 8 8 6 11 9 9 9 7 8 6 8 9 10 9 7 8 nan
nan 7 7 7 7 7 8 7 7 8 10 9 11 15 8 11 9 11 8 7 5 7 7 10 8 6 7 8 7 7 11 7 8 4 8 4 6 13 12 6 6 8 8 8 nan
nan 7 7 7 8 7 8 7 8 13 17 15 11 8 10 13 7 10 9 7 6 6 8 8 8 8 8 9 8 8 12 5 8 7 5 2 11 13 8 5 6 8 9 8 nan
nan 7 7 7 8 8 8 8 18 21 17 11 8 6 11 10 11 12 8 5 4 4 8 8 8 9 12 6 7 9 9 12 6 9 4 12 11 13 8 3 6 8 8 8 nan
nan 8 7 7 8 8 13 21 20 18 10 3 10 12 12 6 10 12 12 6 5 5 4 6 8 10 11 10 12 12 7 7 7 10 6 10 7 14 9 4 6 6 7 7 nan
nan 8 7 8 8 9 20 23 13 11 3 1 3 7 8 9 9 11 10 4 3 1 6 7 7 11 8 10 9 10 7 7 10 5 6 10 13 13 9 7 7 7 7 6 nan
nan 8 8 9 8 13 16 9 6 8 16 16 1 5 2 5 11 14 7 6 4 4 7 5 11 11 12 7 2 6 7 8 5 10 12 7 12 12 11 8 6 6 7 8 nan
nan 8 9 9 14 19 11 11 4 7 12 18 12 12 14 8 8 13 6 3 8 11 6 3 12 9 8 6 7 8 7 7 7 8 14 6 12 9 10 7 7 7 7 8 nan
nan 9 9 15 16 13 16 4 4 10 14 14 10 15 12 8 16 7 8 7 4 8 10 16 7 9 6 5 12 10 8 12 11 4 5 11 6 16 11 7 8 10 10 9 nan
nan 11 11 12 16 9 5 7 13 12 9 9 10 11 14 6 12 13 6 5 8 6 3 7 10 10 7 9 7 8 18 14 7 9 6 11 3 14 7 11 14 12 11 11 nan
nan 10 16 15 7 6 4 13 15 8 13 8 10 10 6 7 0 8 10 3 8 11 7 4 6 11 10 8 11 6 8 10 7 6 12 7 14 18 11 11 9 7 9 10 nan
nan 12 11 6 9 8 14 14 7 8 10 11 9 14 7 9 6 7 13 7 2 10 12 14 9 9 10 6 12 7 -0 6 9 5 10 10 13 12 10 8 9 10 10 9 nan
nan 18 12 4 3 11 14 8 8 12 5 7 12 12 12 7 8 7 6 8 7 5 11 17 11 11 8 5 10 15 -1 7 11 11 3 10 13 2 6 12 17 16 13 12 nan
nan 13 10 16 10 9 13 7 9 5 10 9 12 11 10 1 10 12 4 5 11 6 4 12 6 8 13 12 10 9 7 5 12 12 4 11 11 10 4 10 13 12 11 12 nan
nan 9 12 13 13 9 11 7 5 9 10 8 9 17 19 7 5 8 10 10 8 13 4 -2 16 8 11 9 8 6 14 11 8 4 12 6 6 16 10 4 9 8 9 9 nan
nan 6 10 13 8 11 12 10 3 10 8 11 14 11 12 18 16 5 -1 17 20 13 8 4 10 11 3 15 7 9 2 2 6 11 13 8 11 8 14 10 8 8 7 7 nan
nan 14 10 10 9 11 10 5 7 11 5 9 8 8 10 14 16 15 6 9 18 11 11 7 5 11 10 5 9 8 15 9 9 9 2 6 14 11 15 13 8 7 7 7 nan
nan 13 9 10 13 8 11 7 7 7 6 6 5 8 5 10 13 13 12 14 11 1 11 12 10 6 12 5 15 14 10 4 6 11 12 6 15 12 12 11 9 8 7 7 nan
nan 10 8 8 7 17 16 9 6 -0 3 6 10 7 6 10 9 8 13 9 8 6 6 10 12 4 11 11 11 17 12 11 6 10 6 16 8 11 9 8 7 7 7 7 nan
nan 5 14 17 8 13 12 11 9 4 7 8 7 5 5 0 6 8 11 14 11 11 2 10 9 5 12 14 10 15 15 10 4 6 5 11 18 20 9 10 7 6 6 6 nan
nan 13 6 16 19 10 12 10 11 5 9 8 14 13 2 4 4 -3 4 11 15 15 1 10 5 12 10 13 15 9 9 9 12 9 11 6 19 15 10 8 9 7 6 6 nan
nan nan nan nan nan nan nan nan nan nan nan nan nan nan nan nan nan nan nan nan nan nan nan nan nan nan nan nan nan nan nan nan nan nan nan nan nan nan nan nan nan nan nan nan nan
CAPE
1 1 2 4 2 2 2 3 2 2 1 2 1 1 0 0 0 0 0 0 0 43 0 0 9 117 397 1364 894 821 765 389 413 526 277 392 374 218 320 166 238 344 282 100 439
1 3 3 3 3 3 2 3 2 1 1 1 1 0 0 0 0 0 0 0 0 323 0 645 1217 395 1537 1227 937 954 419 484 735 745 616 340 258 292 333 230 357 743 515 413 482
2 1 3 2 3 2 3 2 3 1 1 1 0 0 0 0 0 0 0 34 10 38 414 829 957 1429 1104 896 724 636 611 907 757 703 794 141 170 253 194 377 324 747 793 475 421
3 2 2 2 3 3 2 2 3 2 1 0 0 0 0 0 0 0 0 9 78 1 761 863 726 536 268 369 433 780 854 569 621 773 688 40 171 169 176 257 198 622 611 406 289
1 4 2 2 2 2 2 2 3 2 1 0 0 0 0 0 0 0 0 20 0 228 703 446 206 376 341 236 640 886 543 582 710 618 178 37 58 225 291 307 183 294 228 185 140
2 1 3 1 2 2 2 2 3 1 0 0 0 1 0 0 0 0 0 0 118 766 832 1017 160 221 356 407 683 584 690 790 732 318 26 76 156 218 297 325 96 85 91 33 13
2 1 2 2 2 2 2 2 1 1 0 0 0 0 0 0 0 0 0 0 73 508 508 909 708 1093 1054 830 824 518 763 715 651 535 298 280 335 450 331 344 54 16 44 0 0
1 1 2 2 2 2 1 1 1 0 0 0 0 0 0 0 0 0 0 0 0 180 153 622 791 1228 1469 1214 899 752 586 616 629 587 429 447 592 360 267 428 87 21 56 59 85
1 2 2 1 2 2 2 1 0 0 0 0 0 0 0 0 0 0 0 1 64 206 827 769 1059 1166 820 753 471 385 525 410 402 422 643 516 516 451 303 445 298 62 58 112 98
1 3 1 1 2 2 1 0 0 0 0 0 0 0 0 0 0 0 0 16 283 527 402 753 869 1254 1133 656 563 347 311 193 236 559 557 443 358 551 358 386 504 289 108 98 104
4 4 1 1 1 1 0 0 0 0 0 0 0 0 0 0 0 0 0 111 346 447 587 457 426 743 730 641 369 382 314 449 533 627 639 446 285 581 454 321 268 343 453 235 141
5 4 0 1 1 2 0 0 0 0 0 0 0 0 0 0 0 0 0 1 245 531 395 342 438 301 436 725 681 643 607 499 500 432 723 430 181 69 241 229 303 528 610 550 337
8 2 3 1 1 0 0 0 0 0 0 0 0 0 0 0 0 0 0 7 290 407 343 432 330 314 334 569 639 577 462 381 382 589 832 719 107 0 43 258 360 548 704 775 846
8 4 4 1 0 0 0 0 0 0 0 0 0 0 0 0 0 0 0 6 174 324 204 321 331 296 414 542 595 368 393 346 438 590 594 636 22 20 36 166 600 710 762 857 972
8 4 3 0 0 0 0 0 0 0 64 0 0 0 0 4 191 29 0 22 136 314 389 373 329 405 536 612 618 557 110 345 362 374 441 311 398 4 36 62 1 40 263 588 785
7 5 1 0 0 0 0 0 0 0 62 0 0 0 0 66 183 341 198 105 207 174 231 343 318 414 504 446 512 43 295 401 371 297 384 308 537 166 31 94 3 10 31 120 610
4 1 0 0 0 0 0 0 0 28 3 107 0 0 6 109 142 377 266 215 357 546 522 357 380 472 506 545 496 197 217 292 282 220 371 249 288 226 219 87 106 215 310 492 658
1 0 0 0 0 0 0 0 0 29 26 174 168 21 29 89 111 247 280 278 262 357 525 148 255 438 340 549 387 452 482 200 183 134 237 247 298 389 32 39 64 78 179 253 426
0 0 0 0 0 0 0 0 0 25 180 289 264 136 15 12 51 193 152 127 67 254 448 121 37 179 168 411 170 531 337 101 77 2 13 146 275 214 81 160 250 377 540 669 757
0 0 0 0 0 0 0 0 0 0 346 313 391 239 255 59 73 82 237 155 17 122 247 457 221 257 82 128 0 0 21 17 0 20 34 66 130 271 260 267 464 590 843 1251 1543
0 0 0 0 0 0 0 0 0 25 371 356 291 287 390 298 115 155 387 336 199 193 340 415 198 296 106 93 55 0 0 0 0 0 68 87 113 273 353 186 464 618 943 1165 1166
0 0 0 0 0 0 0 0 0 51 289 353 253 254 303 141 345 310 441 368 225 397 341 428 328 148 384 0 28 12 12 0 1 6 0 9 174 110 89 199 432 755 886 889 1014
0 0 0 0 0 0 0 0 0 6 278 278 342 295 191 61 356 413 349 337 245 301 15 358 363 391 318 0 5 17 0 0 0 0 0 39 289 229 218 315 490 622 599 687 658
0 0 0 0 0 0 0 0 0 0 13 60 120 314 232 42 100 117 387 399 18 87 210 87 157 343 277 58 8 0 0 0 0 6 72 33 375 369 250 311 479 439 385 327 392
0 0 0 0 0 0 0 0 0 0 0 3 22 104 61 145 1 4 31 201 255 203 146 237 44 135 72 0 0 0 0 0 0 7 22 44 8 455 308 274 358 377 271 273 183
0 0 0 0 0 0 0 0 0 0 0 2 26 123 52 3 0 36 11 0 126 683 385 159 395 9 15 0 0 0 13 1 0 0 24 8 93 335 185 157 268 175 126 159 198
0 0 0 0 0 0 0 0 0 0 4 5 14 84 83 38 61 20 0 0 16 768 617 310 278 124 28 0 0 23 37 28 48 17 40 63 193 318 76 63 129 105 99 146 217